Change the Weather History Date:

Sunday, December 22, 2013

  Actual Average Record
Temperature  
Mean Temperature 42 °F 47 °F  
Max Temperature 53 °F 57 °F 79 °F (1921)
Min Temperature 31 °F 38 °F 7 °F (1983)
Degree Days  
Heating Degree Days 23 18  
Month to date heating degree days 377 364  
Since 1 July heating degree days 767 738  
Cooling Degree Days 0 0  
Month to date cooling degree days 10 0  
Year to date cooling degree days 2777 2411  
Moisture  
Dew Point 37 °F    
Average Humidity 82    
Maximum Humidity 100    
Minimum Humidity 64    
Precipitation  
Precipitation 0.00 in 0.15 in 2.45 in (1939)
Month to date precipitation 3.02 3.00  
Year to date precipitation 42.03 44.55  
Snow  
Snow 0.00 in - - ()
Month to date snowfall T  
Since 1 July snowfall T  
Snow Depth 0.00 in    
Sea Level Pressure  
Sea Level Pressure 30.07 in    
Wind  
Wind Speed 10 mph (NW)    
Max Wind Speed 18 mph    
Max Gust Speed 23 mph    
Visibility 10 miles    
Events      
T = Trace of Precipitation, MM = Missing Value Source: NWS Daily Summary

Daily Weather History Graph

Daily Weather History Graph

Search for Another Location

Airport or City:

Trip Planner

Search our weather history database for the weather conditions in past years. The results will help you decide how hot, cold, wet, or windy it might be!

Date:

Astronomy

Dec. 22, 2013 Rise Set
Actual Time 7:19 AM CST 5:21 PM CST
Civil Twilight 6:52 AM CST 5:48 PM CST
Nautical Twilight 6:21 AM CST 6:19 PM CST
Astronomical Twilight 5:51 AM CST 6:49 PM CST
Moon 10:18 PM CST (12/22) 10:31 AM CST (12/22)
Length of Visible Light 10h 56m
Length of Day
10h 01m
Waning Gibbous, 76% of the Moon is Illuminated
Dec 22
Waning Gibbous
Dec 25
Last Quarter
Jan 1
New
Jan 7
First Quarter
Jan 15
Full

Hourly Weather History & Observations

Time (CST) Temp. Windchill Dew Point Humidity Pressure Visibility Wind Dir Wind Speed Gust Speed Precip Events Conditions
12:53 AM 52.0 °F - 51.1 °F 97% 29.81 in 10.0 mi South 10.4 mph - N/A   Overcast
1:53 AM 52.0 °F - 51.1 °F 97% 29.83 in 10.0 mi SSW 11.5 mph - N/A   Overcast
2:11 AM 51.8 °F - 50.0 °F 94% 29.83 in 10.0 mi SSW 9.2 mph - N/A   Overcast
2:53 AM 51.1 °F - 50.0 °F 96% 29.84 in 10.0 mi SSW 9.2 mph - N/A   Overcast
3:00 AM 51.8 °F - 50.0 °F 94% 29.85 in 10.0 mi South 9.2 mph - N/A   Overcast
3:53 AM 51.1 °F - 50.0 °F 96% 29.88 in 10.0 mi West 5.8 mph - N/A   Mostly Cloudy
4:35 AM 51.8 °F - 48.2 °F 88% 29.90 in 10.0 mi West 5.8 mph - N/A   Overcast
4:45 AM 50.0 °F - 48.2 °F 94% 29.91 in 10.0 mi West 5.8 mph - N/A   Overcast
4:53 AM 50.0 °F - 48.9 °F 96% 29.90 in 10.0 mi West 5.8 mph - N/A   Overcast
5:18 AM 48.2 °F - 46.4 °F 93% 29.91 in 10.0 mi NNW 16.1 mph - N/A   Overcast
5:23 AM 48.2 °F - 46.4 °F 93% 29.92 in 9.0 mi NW 12.7 mph 18.4 mph N/A   Overcast
5:53 AM 44.1 °F 37.4 °F 43.0 °F 96% 29.93 in 3.0 mi NNW 13.8 mph - N/A   Overcast
6:53 AM 43.0 °F 38.2 °F 41.0 °F 93% 29.96 in 10.0 mi NNW 8.1 mph - N/A   Overcast
7:26 AM 42.8 °F 37.0 °F 39.2 °F 87% 29.98 in 10.0 mi NNW 10.4 mph - N/A   Overcast
7:53 AM 43.0 °F 36.4 °F 39.9 °F 89% 30.00 in 10.0 mi NW 12.7 mph - N/A   Overcast
8:53 AM 39.9 °F 32.5 °F 36.0 °F 86% 30.05 in 10.0 mi WNW 12.7 mph - N/A   Overcast
9:12 AM 41.0 °F 33.1 °F 33.8 °F 76% 30.06 in 10.0 mi NW 15.0 mph 19.6 mph N/A   Mostly Cloudy
9:21 AM 41.0 °F 34.7 °F 35.6 °F 81% 30.07 in 10.0 mi NW 10.4 mph - N/A   Mostly Cloudy
9:53 AM 39.9 °F 32.5 °F 35.1 °F 83% 30.09 in 10.0 mi NW 12.7 mph - N/A   Overcast
10:53 AM 39.9 °F 32.1 °F 34.0 °F 79% 30.11 in 10.0 mi NNW 13.8 mph - N/A   Overcast
11:46 AM 39.2 °F 31.2 °F 33.8 °F 81% 30.12 in 10.0 mi NW 13.8 mph - N/A   Overcast
11:53 AM 39.9 °F 31.8 °F 33.1 °F 77% 30.13 in 10.0 mi NW 15.0 mph - N/A   Overcast
12:03 PM 39.2 °F 31.2 °F 33.8 °F 81% 30.13 in 10.0 mi NW 13.8 mph - N/A   Overcast
12:53 PM 39.0 °F 31.4 °F 32.0 °F 76% 30.14 in 10.0 mi NW 12.7 mph - N/A   Overcast
1:53 PM 37.9 °F 29.2 °F 30.0 °F 73% 30.14 in 10.0 mi NW 15.0 mph - N/A   Overcast
2:53 PM 37.0 °F 29.8 °F 28.9 °F 73% 30.17 in 10.0 mi NW 10.4 mph - N/A   Overcast
3:53 PM 37.9 °F 31.5 °F 30.0 °F 73% 30.18 in 10.0 mi NW 9.2 mph - N/A   Overcast
4:53 PM 39.0 °F 32.8 °F 28.9 °F 67% 30.22 in 10.0 mi NNW 9.2 mph - N/A   Overcast
5:18 PM 39.2 °F 33.6 °F 28.4 °F 65% 30.23 in 10.0 mi NNW 8.1 mph - N/A   Overcast
5:53 PM 37.0 °F 33.3 °F 28.9 °F 73% 30.24 in 10.0 mi NNW 4.6 mph - N/A   Partly Cloudy
6:53 PM 37.0 °F 33.3 °F 30.0 °F 76% 30.27 in 10.0 mi North 4.6 mph - N/A   Overcast
7:53 PM 36.0 °F 31.1 °F 28.9 °F 76% 30.30 in 10.0 mi North 5.8 mph - N/A   Clear
8:53 PM 34.0 °F 25.5 °F 27.0 °F 75% 30.32 in 10.0 mi North 11.5 mph - N/A   Clear
9:53 PM 32.0 °F 24.8 °F 26.1 °F 79% 30.35 in 10.0 mi North 8.1 mph - N/A   Clear
10:53 PM 30.9 °F 24.3 °F 26.1 °F 82% 30.37 in 10.0 mi North 6.9 mph - N/A   Clear
11:53 PM 30.9 °F 23.5 °F 25.0 °F 79% 30.38 in 10.0 mi North 8.1 mph - N/A   Mostly Cloudy